STARLINK-4599, 53631

Orbit data source: Space-Track

STARLINK-4599, 53631 is a payload satellite owned by SpaceX/Seattle (US) in LEO that was launched on Sun, 28 Aug 2022 UTC via an FALCON 9 launch vehicle from the Air Force Eastern Test Range (AFETR). Payload-class satellites include a variety of spacecraft equipped with specific instruments for various scientific and technological missions. These include communications satellites like Starlink; space stations such as the ISS; scientific satellites like the Hubble; Earth observation satellites from companies like Planet Labs, Umbra, and HawkEye 360; GPS; miniature CubeSats for education and research; and military/defense satellites.

Loading next visibility...
Identifier
53631, 2022-104AV
Orbit
LEO
Country
Flag of USUS
Related business
Manufacturer
SpaceX/Seattle
Mission
Operational Commercial Communications
Bus & Motor
STARLINK, Unknown motor
Mass
300 kg wet, ~290 kg dry
Launch date (UTC)
2022-08-28 (3 years ago)
Launch vehicle
FALCON 9
Launch site
Air Force Eastern Test Range (AFETR)
Object type
Payload
Rocket body
Debris
Shape & HBR
Box + 1 Pan, 10.1 m
Radar Cross Section
13.562 m², Large (>1 m²)

Expand to show TLE details & history
Last TLE update: 3 days ago

TLE from 3 days ago
0 STARLINK-4599
1 53631U 22104AV  25299.76478405 -.00000243  00000-0  28355-5 0  9993
2 53631  53.2175 114.8538 0001387  92.1680 267.9471 15.08839361175540
Epoch: 2025-10-26T18:21Z
TLE epoch observation values (Epoch: 2025-10-26T18:21:17.341Z)
Latitude
-0.00004°
Longitude
164.15522°
Altitude
540.677 km
Speed
7.593 km/s
True Right ascension
07h 39m 24s
True Declination
0° 00' 00"
Sunlit
Object was in daylight at epoch
Visualization orbit readout
Latitude
Unknown
Longitude
Unknown
Altitude
Unknown
Speed
Unknown
Apparent Right ascension
Unknown
Apparent Declination
Unknown
Sunlit
N/A
Visualization observer readout
Local Sidereal Time
17:38:47
Azimuth
Unknown
Elevation
Unknown
Doppler factor
Unknown
Orbital elements
Apogee altitude
540.95 km
Perigee altitude
539.031 km
Semi-major axis
6,918.127 km
Eccentricity
0.00014
Inclination
53.2175°
RAAN
114.8538°
Arg. of periapsis
92.168°
True anomaly
267.93122°
Mean anomaly
267.9471°
Eccentric anomaly
267.93916°
Mean motion
3.7719 °/min
Orbital period
95.44 mins
BSTAR
0.0000028355
Loading maneuver chart data...
Computing Atmospheric mass density...
Loading historical data...
Loading historical data...
Loading historical data...
Loading historical data...
Loading historical data...
Loading historical data...
Loading historical data...

Documentation

Showing up to 5 results
|